Regional Weather Roundup
Issued by NWS

Home | Current Version | Previous Version | Text Only | Print | Product List | Glossary Off
Versions: 1 2 3 4 5 6 7 8 9 10 11 12 13 14 15 16 17 18 19 20 21 22 23 24 25 26 27 28 29 30 31 32 33 34 35 36 37 38 39 40 41 42 43 44 45 46 47 48 49 50

000
ASUS43 KDTX 241810
RWRMI
MICHIGAN HOURLY REGIONAL WEATHER ROUNDUP
NATIONAL WEATHER SERVICE DETROIT/PONTIAC MI
200 PM EDT SAT SEP 24 2016

NOTE: "FAIR" INDICATES FEW OR NO CLOUDS BELOW 12,000 FEET WITH NO
SIGNIFICANT WEATHER AND/OR OBSTRUCTION TO VISIBILITY.

MIZ047>049-052>055-059>063-066>070-074>076-081>083-241900-
SOUTHEAST LOWER MICHIGAN

CITY           SKY/WX    TMP DP  RH WIND       PRES   REMARKS
ADRIAN         CLOUDY    70  53  54 E7        30.24F
6HR MIN TEMP:  59; 6HR MAX TEMP:  71;

ALMA           SUNNY     67  49  53 NE6       30.27F
ANN ARBOR      SUNNY     68  52  56 CALM      30.23F
BAD AXE        SUNNY     63  45  52 NE6       30.30S
CARO           SUNNY     65  47  51 NE6       30.28S
DETROIT CITY   SUNNY     67  51  56 N9        30.25F
6HR MIN TEMP:  57; 6HR MAX TEMP:  67;

DETROIT        MOSUNNY   68  53  58 VRB6      30.25F
6HR MIN TEMP:  57; 6HR MAX TEMP:  68;

FLINT          MOSUNNY   65  51  60 E9        30.27F
6HR MIN TEMP:  52; 6HR MAX TEMP:  66;

GROSSE ILE     SUNNY     69  51  52 NE9       30.23F
6HR MIN TEMP:  59; 6HR MAX TEMP:  69;

HILLSDALE      CLOUDY    70  54  56 NE7       30.23F
HOWELL         SUNNY     66  50  57 NE5       30.25F
6HR MIN TEMP:  54; 6HR MAX TEMP:  66;


CITY           SKY/WX    TMP DP  RH WIND       PRES   REMARKS
JACKSON        SUNNY     69  54  58 E5        30.24F
6HR MIN TEMP:  55; 6HR MAX TEMP:  69;

LAMBERTVILLE   MOSUNNY   69  56  63 SE8       30.23F
6HR MIN TEMP:  62; 6HR MAX TEMP:  70;

LANSING        SUNNY     67  50  54 E10       30.26F
6HR MIN TEMP:  51; 6HR MAX TEMP:  67;

LAPEER         FAIR      65  46  50 NE5       30.28S
MASON          SUNNY     66  50  56 E6        30.26S
MONROE         SUNNY     70  53  55 E7        30.23F
MT. CLEMENS    MOSUNNY   66  52  61 VRB7      30.24F
6HR MIN TEMP:  53; 6HR MAX TEMP:  66;

PONTIAC        MOSUNNY   65  49  56 NE9       30.25F
6HR MIN TEMP:  54; 6HR MAX TEMP:  66;

PORT HOPE        N/A     61  46  57 NE8       30.29F
6HR MIN TEMP:  60; 6HR MAX TEMP:  61;

PORT HURON     SUNNY     63  48  59 N5        30.27F
TRI CITIES     MOSUNNY   66  49  54 NE7       30.29F
6HR MIN TEMP:  52; 6HR MAX TEMP:  67;

MIDLAND        FAIR      66  47  50 E9        30.27F
6HR MIN TEMP:  49; 6HR MAX TEMP:  66;

TROY           SUNNY     67  45  44 E6        30.27F
SAGINAW HB     SUNNY     68  45  42 NE5       30.27F
$$
MIZ043>046-050>051-056>058-064>065-071>073-077>080-241900-
SOUTHWEST LOWER MICHIGAN

CITY           SKY/WX    TMP DP  RH WIND       PRES   REMARKS
BATTLE CREEK   PTSUNNY   69  57  65 NE7       30.24S
6HR MIN TEMP:  57; 6HR MAX TEMP:  70;

BENTON HARBOR  SUNNY     73  60  63 E8        30.20F
6HR MIN TEMP:  58; 6HR MAX TEMP:  73;

BIG RAPIDS     SUNNY     66  49  54 E10G17    30.26F
6HR MIN TEMP:  51; 6HR MAX TEMP:  67;

COLDWATER      CLOUDY    69  55  60 E5        30.23F
6HR MIN TEMP:  59; 6HR MAX TEMP:  69;

FREMONT        FAIR      67  42  41 E9        30.25F
HOLLAND        MOSUNNY   69  56  62 E9G16     30.24S
6HR MIN TEMP:  54; 6HR MAX TEMP:  70;

GRAND RAPIDS   CLOUDY    66  51  58 E10       30.26S
6HR MIN TEMP:  52; 6HR MAX TEMP:  66;

IONIA          FAIR      65  50  57 E7        30.25F
6HR MIN TEMP:  50; 6HR MAX TEMP:  65;

KALAMAZOO      CLOUDY    68  55  63 VRB3      30.23F
6HR MIN TEMP:  57; 6HR MAX TEMP:  69;

LUDINGTON      SUNNY     68  52  56 E7        30.24F
6HR MIN TEMP:  51; 6HR MAX TEMP:  68;

MARSHALL       PTSUNNY   69  55  62 E6        30.24S
6HR MIN TEMP:  56; 6HR MAX TEMP:  70;

MOUNT PLEASANT SUNNY     66  49  53 E12       30.26F
MUSKEGON       MOSUNNY   68  51  54 E10       30.25F
6HR MIN TEMP:  54; 6HR MAX TEMP:  68;

SOUTH HAVEN    SUNNY     71  61  69 E10       30.21F
$$
MIZ016>042-241900-
NORTHERN LOWER MICHIGAN

CITY           SKY/WX    TMP DP  RH WIND       PRES   REMARKS
ALPENA         SUNNY     65  40  39 E9        30.30F
6HR MIN TEMP:  42; 6HR MAX TEMP:  65;

BEAVER ISLAND  MOSUNNY   62  47  58 E9        30.31S
6HR MIN TEMP:  44; 6HR MAX TEMP:  62;

BELLAIRE       CLOUDY    64  43  45 SE5       30.29F
6HR MIN TEMP:  41; 6HR MAX TEMP:  64;

CADILLAC       CLOUDY    64  46  52 E9        30.27S
CHARLEVOIX     CLOUDY    64  44  48 E6        30.32F
6HR MIN TEMP:  48; 6HR MAX TEMP:  64;

FRANKFORT      SUNNY     67  48  51 E9        30.25F
GAYLORD        MOSUNNY   63  40  42 VRB3      30.30F
6HR MIN TEMP:  43; 6HR MAX TEMP:  64;

GRAYLING       CLOUDY    64  44  48 E5        30.30F
HARBOR SPRINGS CLOUDY    63  44  49 S3        30.30F
HOUGHTON LAKE  CLOUDY    64  44  48 E7        30.29F
6HR MIN TEMP:  46; 6HR MAX TEMP:  65;

MANISTEE       PTSUNNY   68  50  52 E8        30.24F
OSCODA         PTSUNNY   63  44  48 E7        30.29F
6HR MIN TEMP:  46; 6HR MAX TEMP:  64;

PELLSTON       CLOUDY    62  42  47 VRB5      30.31S
6HR MIN TEMP:  38; 6HR MAX TEMP:  63;

ROGERS CITY    SUNNY     62  41  45 E8        30.31F
TRAVERSE CITY  CLOUDY    68  44  42 SE8       30.26F
6HR MIN TEMP:  49; 6HR MAX TEMP:  68;

$$
MIZ007>008-015-241900-
EASTERN UPPER MICHIGAN

CITY           SKY/WX    TMP DP  RH WIND       PRES   REMARKS
KINROSS        SUNNY     63  43  48 VRB6      30.31S
6HR MIN TEMP:  45; 6HR MAX TEMP:  63;

MACKINAC ISLAN SUNNY     62  45  52 SE3       30.31S
NEWBERRY       MOSUNNY   63  48  57 S9        30.30F
6HR MIN TEMP:  41; 6HR MAX TEMP:  64;

S. S. MARIE    SUNNY     65  41  41 CALM      30.30S
6HR MIN TEMP:  46; 6HR MAX TEMP:  65;

MUNISING         N/A     64  49  57 S9        30.27F
6HR MIN TEMP:  44; 6HR MAX TEMP:  64;

$$
MIZ004>006-011>014-085-241900-
CENTRAL UPPER MICHIGAN

CITY           SKY/WX    TMP DP  RH WIND       PRES   REMARKS
MANISTIQUE     CLOUDY    63  47  55 SE9       30.30F
6HR MIN TEMP:  44; 6HR MAX TEMP:  64;

ESCANABA       MOSUNNY   64  50  60 SE13      30.27F
6HR MIN TEMP:  49; 6HR MAX TEMP:  65;

SAWYER-GWINN   MOSUNNY   63  48  59 S10G16    30.28F
$$
MIZ001>003-009>011-084-241900-
WESTERN UPPER MICHIGAN

CITY           SKY/WX    TMP DP  RH WIND       PRES   REMARKS
IRON MOUNTAIN  SUNNY     67  47  48 SE10      30.24F
6HR MIN TEMP:  51; 6HR MAX TEMP:  67;

HOUGHTON       CLOUDY    64  50  60 SE10      30.23F
6HR MIN TEMP:  53; 6HR MAX TEMP:  64; 6HR PCP: TRACE;

COPPER HARBOR    N/A     64  50  60 SW9       30.25S
6HR MIN TEMP:  48; 6HR MAX TEMP:  64;

IRONWOOD       CLOUDY    67  56  67 S9        30.19
6HR MIN TEMP:  55; 6HR MAX TEMP:  67;

$$

ABBREVIATIONS USED IN REMARKS
   TC - TEMPERATURE IN CELSIUS
  WCI - WIND CHILL INDEX
   HX - HEAT INDEX
  VSB - VISIBILITY




USA.gov is the U.S. government's official web portal to all federal, state and local government web resources and services.